| time (UTC) | temp C | wind direction | speed KPH | gust KPH | rain 1hr cm | rain 24hr cm | rain mn cm | humidity % | barometer mb |
| 20260505102031 | 7 | 202 | 4.8 | 6.4 | 0.00 | 0.03 | 0.00 | 55 | 1014.5 |
| 20260505101529 | 7 | 239 | 1.6 | 4.8 | 0.00 | 0.03 | 0.00 | 54 | 1014.5 |
| 20260505101027 | 7 | 237 | 3.2 | 4.8 | 0.00 | 0.03 | 0.00 | 54 | 1014.5 |
| 20260505100526 | 7 | 233 | 4.8 | 6.4 | 0.00 | 0.03 | 0.00 | 54 | 1014.5 |
| 20260505100024 | 7 | 256 | 3.2 | 6.4 | 0.00 | 0.03 | 0.00 | 54 | 1014.6 |
| 20260505095522 | 7 | 295 | 6.4 | 9.7 | 0.00 | 0.03 | 0.00 | 54 | 1014.6 |
| 20260505095020 | 7 | 204 | 3.2 | 4.8 | 0.00 | 0.03 | 0.00 | 54 | 1014.6 |
| 20260505094518 | 7 | 214 | 4.8 | 8.0 | 0.00 | 0.03 | 0.00 | 54 | 1014.6 |
| 20260505094016 | 7 | 233 | 4.8 | 6.4 | 0.00 | 0.03 | 0.00 | 54 | 1014.6 |
| 20260505093532 | 8 | 216 | 4.8 | 6.4 | 0.00 | 0.03 | 0.00 | 54 | 1014.6 |
| 20260505093030 | 8 | 209 | 3.2 | 6.4 | 0.00 | 0.03 | 0.00 | 53 | 1014.6 |
| 20260505092527 | 8 | 115 | 4.8 | 6.4 | 0.00 | 0.03 | 0.00 | 53 | 1014.7 |
| 20260505092026 | 8 | 179 | 3.2 | 6.4 | 0.00 | 0.03 | 0.00 | 53 | 1014.7 |
| 20260505091524 | 8 | 172 | 3.2 | 6.4 | 0.00 | 0.03 | 0.00 | 53 | 1014.7 |
| 20260505091022 | 8 | 203 | 4.8 | 8.0 | 0.00 | 0.03 | 0.00 | 53 | 1014.9 |
| 20260505090520 | 8 | 174 | 3.2 | 6.4 | 0.00 | 0.03 | 0.00 | 53 | 1014.9 |
| 20260505090018 | 8 | 228 | 4.8 | 6.4 | 0.00 | 0.03 | 0.00 | 53 | 1014.9 |
| 20260505085516 | 8 | 241 | 3.2 | 4.8 | 0.00 | 0.03 | 0.00 | 53 | 1015.0 |
| 20260505085015 | 8 | 199 | 3.2 | 4.8 | 0.00 | 0.03 | 0.00 | 52 | 1015.0 |
| 20260505084530 | 8 | 262 | 3.2 | 4.8 | 0.00 | 0.03 | 0.00 | 52 | 1015.1 |
| 20260505084028 | 8 | 221 | 3.2 | 8.0 | 0.00 | 0.03 | 0.00 | 52 | 1015.1 |
| 20260505083526 | 8 | 289 | 3.2 | 6.4 | 0.00 | 0.03 | 0.00 | 52 | 1015.1 |
| 20260505083024 | 8 | 183 | 4.8 | 6.4 | 0.00 | 0.03 | 0.00 | 52 | 1015.1 |
| 20260505082522 | 8 | 214 | 6.4 | 9.7 | 0.00 | 0.03 | 0.00 | 52 | 1015.1 |
| 20260505082021 | 8 | 221 | 4.8 | 4.8 | 0.00 | 0.03 | 0.00 | 52 | 1015.2 |
| 20260505081519 | 8 | 228 | 4.8 | 6.4 | 0.00 | 0.03 | 0.00 | 52 | 1015.2 |
| 20260505081017 | 8 | 162 | 4.8 | 6.4 | 0.00 | 0.03 | 0.00 | 52 | 1015.3 |
| 20260505080515 | 8 | 245 | 4.8 | 8.0 | 0.00 | 0.03 | 0.00 | 52 | 1015.3 |
| 20260505080019 | 8 | 224 | 3.2 | 4.8 | 0.00 | 0.03 | 0.00 | 51 | 1015.4 |
| 20260505075517 | 8 | 211 | 4.8 | 8.0 | 0.00 | 0.03 | 0.00 | 51 | 1015.5 |
| 20260505075016 | 8 | 213 | 6.4 | 9.7 | 0.00 | 0.03 | 0.00 | 51 | 1015.4 |
| 20260505074532 | 9 | 252 | 4.8 | 6.4 | 0.00 | 0.03 | 0.00 | 50 | 1015.3 |
| 20260505074030 | 9 | 204 | 3.2 | 4.8 | 0.00 | 0.03 | 0.00 | 50 | 1015.3 |
| 20260505073528 | 9 | 259 | 4.8 | 8.0 | 0.00 | 0.03 | 0.00 | 49 | 1015.2 |
| 20260505073027 | 9 | 206 | 3.2 | 6.4 | 0.00 | 0.03 | 0.00 | 49 | 1015.2 |
| 20260505072525 | 9 | 212 | 8.0 | 11.3 | 0.00 | 0.03 | 0.00 | 48 | 1015.2 |
| 20260505072023 | 9 | 251 | 3.2 | 6.4 | 0.00 | 0.03 | 0.00 | 48 | 1015.2 |
| 20260505071521 | 9 | 157 | 4.8 | 12.9 | 0.00 | 0.03 | 0.00 | 48 | 1015.2 |
| 20260505071019 | 9 | 225 | 1.6 | 4.8 | 0.00 | 0.03 | 0.00 | 47 | 1015.2 |
| 20260505070518 | 9 | 220 | 6.4 | 9.7 | 0.00 | 0.03 | 0.00 | 47 | 1015.2 |
| 20260505070136 | 9 | 173 | 3.2 | 8.0 | 0.00 | 0.03 | 0.00 | 46 | 1015.0 |
| 20260505065532 | 10 | 225 | 8.0 | 12.9 | 0.00 | 0.03 | 0.00 | 46 | 1015.0 |
| 20260505065050 | 10 | 210 | 8.0 | 11.3 | 0.00 | 0.03 | 0.00 | 46 | 1015.0 |
| 20260505064528 | 9 | 240 | 8.0 | 11.3 | 0.00 | 0.03 | 0.00 | 46 | 1015.1 |
| 20260505064026 | 10 | 188 | 4.8 | 6.4 | 0.00 | 0.03 | 0.00 | 46 | 1015.1 |
| 20260505063545 | 10 | 260 | 6.4 | 8.0 | 0.00 | 0.03 | 0.00 | 46 | 1015.0 |
| 20260505063023 | 10 | 202 | 4.8 | 8.0 | 0.00 | 0.03 | 0.00 | 45 | 1015.0 |
| 20260505062521 | 10 | 249 | 6.4 | 8.0 | 0.00 | 0.03 | 0.00 | 45 | 1014.9 |
| 20260505062020 | 10 | 244 | 4.8 | 8.0 | 0.00 | 0.03 | 0.00 | 45 | 1014.9 |
| 20260505061518 | 10 | 234 | 6.4 | 8.0 | 0.00 | 0.03 | 0.00 | 45 | 1014.9 |
| 20260505061016 | 10 | 240 | 8.0 | 9.7 | 0.00 | 0.03 | 0.00 | 45 | 1014.7 |
| 20260505060612 | 10 | 213 | 8.0 | 11.3 | 0.00 | 0.03 | 0.00 | 45 | 1014.7 |
| 20260505060030 | 10 | 245 | 6.4 | 11.3 | 0.00 | 0.03 | 0.00 | 45 | 1014.8 |
| 20260505055527 | 10 | 233 | 8.0 | 9.7 | 0.00 | 0.03 | 0.03 | 45 | 1014.9 |
| 20260505055024 | 10 | 221 | 4.8 | 6.4 | 0.00 | 0.03 | 0.03 | 45 | 1014.9 |
| 20260505054542 | 10 | 215 | 6.4 | 8.0 | 0.00 | 0.03 | 0.03 | 44 | 1015.0 |
| 20260505054059 | 10 | 288 | 6.4 | 8.0 | 0.00 | 0.03 | 0.03 | 44 | 1015.0 |
| 20260505053517 | 10 | 213 | 6.4 | 11.3 | 0.00 | 0.03 | 0.03 | 44 | 1015.0 |
| 20260505053021 | 10 | 227 | 6.4 | 9.7 | 0.00 | 0.03 | 0.03 | 44 | 1015.0 |
| 20260505052518 | 10 | 226 | 8.0 | 11.3 | 0.00 | 0.03 | 0.03 | 44 | 1015.0 |
| 20260505052014 | 10 | 225 | 6.4 | 9.7 | 0.00 | 0.03 | 0.03 | 44 | 1015.1 |
| 20260505051530 | 10 | 203 | 8.0 | 11.3 | 0.00 | 0.03 | 0.03 | 44 | 1015.1 |
| 20260505051027 | 10 | 161 | 6.4 | 9.7 | 0.00 | 0.03 | 0.03 | 45 | 1015.2 |
| 20260505050524 | 10 | 204 | 4.8 | 9.7 | 0.00 | 0.03 | 0.03 | 46 | 1015.2 |
| 20260505041519 | 10 | 0.0 | 0.0 | 0.00 | 0.03 | 0.03 | 45 | 1015.0 | |
| 20260505041016 | 10 | 0.0 | 0.0 | 0.00 | 0.03 | 0.03 | 44 | 1014.7 | |
| 20260505040531 | 10 | 256 | 1.6 | 1.6 | 0.00 | 0.03 | 0.03 | 43 | 1014.7 |
| 20260505040028 | 10 | 229 | 1.6 | 3.2 | 0.00 | 0.03 | 0.03 | 43 | 1014.6 |
| 20260505035526 | 11 | 217 | 3.2 | 6.4 | 0.00 | 0.03 | 0.03 | 43 | 1014.5 |
| 20260505035043 | 11 | 199 | 4.8 | 6.4 | 0.00 | 0.03 | 0.03 | 43 | 1014.5 |
| 20260505034521 | 10 | 232 | 4.8 | 6.4 | 0.00 | 0.03 | 0.03 | 43 | 1014.5 |
| 20260505034018 | 10 | 293 | 0.0 | 1.6 | 0.00 | 0.03 | 0.03 | 42 | 1014.5 |
| 20260505033535 | 11 | 203 | 1.6 | 3.2 | 0.00 | 0.03 | 0.03 | 41 | 1014.4 |
| 20260505033039 | 11 | 205 | 4.8 | 8.0 | 0.00 | 0.03 | 0.03 | 40 | 1014.4 |
| 20260505032517 | 11 | 199 | 3.2 | 4.8 | 0.00 | 0.03 | 0.03 | 39 | 1014.5 |
| 20260505032033 | 11 | 232 | 3.2 | 6.4 | 0.00 | 0.03 | 0.03 | 38 | 1014.5 |
| 20260505031529 | 12 | 220 | 4.8 | 8.0 | 0.00 | 0.03 | 0.03 | 37 | 1014.5 |
| 20260505031027 | 12 | 206 | 3.2 | 4.8 | 0.00 | 0.03 | 0.03 | 36 | 1014.3 |
| 20260505030544 | 12 | 232 | 4.8 | 6.4 | 0.00 | 0.03 | 0.03 | 36 | 1014.3 |
| 20260505030021 | 12 | 215 | 4.8 | 8.0 | 0.00 | 0.03 | 0.03 | 35 | 1014.3 |
| 20260505025520 | 12 | 224 | 6.4 | 9.7 | 0.00 | 0.03 | 0.03 | 35 | 1014.3 |
| 20260505025018 | 12 | 236 | 4.8 | 6.4 | 0.00 | 0.03 | 0.03 | 35 | 1014.3 |
| 20260505024516 | 12 | 233 | 4.8 | 8.0 | 0.00 | 0.03 | 0.03 | 34 | 1014.2 |
| 20260505024032 | 13 | 235 | 6.4 | 8.0 | 0.00 | 0.03 | 0.03 | 34 | 1014.2 |
| 20260505023529 | 13 | 222 | 6.4 | 12.9 | 0.00 | 0.03 | 0.03 | 33 | 1013.9 |
| 20260505023026 | 13 | 202 | 6.4 | 9.7 | 0.00 | 0.05 | 0.03 | 33 | 1013.9 |
| 20260505022544 | 13 | 227 | 8.0 | 8.0 | 0.00 | 0.05 | 0.03 | 33 | 1013.9 |
| 20260505022021 | 13 | 244 | 8.0 | 11.3 | 0.00 | 0.05 | 0.03 | 32 | 1013.8 |
| 20260505021519 | 14 | 215 | 8.0 | 9.7 | 0.00 | 0.05 | 0.03 | 32 | 1013.8 |
| 20260505021017 | 14 | 220 | 8.0 | 11.3 | 0.00 | 0.05 | 0.03 | 31 | 1013.7 |
| 20260505020532 | 14 | 232 | 9.7 | 14.5 | 0.00 | 0.05 | 0.03 | 30 | 1013.7 |
| 20260505020030 | 15 | 240 | 8.0 | 9.7 | 0.00 | 0.05 | 0.03 | 30 | 1013.7 |
| 20260505015547 | 15 | 229 | 11.3 | 16.1 | 0.00 | 0.05 | 0.03 | 30 | 1013.7 |
| 20260505015025 | 15 | 241 | 6.4 | 8.0 | 0.00 | 0.05 | 0.03 | 30 | 1013.7 |
| 20260505014521 | 16 | 211 | 8.0 | 11.3 | 0.00 | 0.05 | 0.03 | 29 | 1013.7 |
| 20260505014020 | 16 | 250 | 9.7 | 12.9 | 0.00 | 0.05 | 0.03 | 29 | 1013.7 |
| 20260505013518 | 16 | 231 | 9.7 | 11.3 | 0.00 | 0.05 | 0.03 | 29 | 1013.7 |
| 20260505013016 | 16 | 238 | 11.3 | 17.7 | 0.00 | 0.05 | 0.03 | 28 | 1013.7 |
| 20260505012519 | 17 | 239 | 9.7 | 12.9 | 0.00 | 0.05 | 0.03 | 28 | 1013.7 |
| 20260505012017 | 17 | 223 | 11.3 | 14.5 | 0.00 | 0.05 | 0.03 | 27 | 1013.7 |
| 20260505011532 | 17 | 186 | 11.3 | 12.9 | 0.00 | 0.05 | 0.03 | 26 | 1013.7 |
| 20260505011050 | 18 | 271 | 9.7 | 14.5 | 0.00 | 0.05 | 0.03 | 27 | 1013.4 |
| 20260505010528 | 18 | 236 | 6.4 | 9.7 | 0.00 | 0.05 | 0.03 | 27 | 1013.4 |
| 20260505010025 | 18 | 200 | 9.7 | 11.3 | 0.00 | 0.05 | 0.03 | 29 | 1013.7 |
| 20260505005523 | 17 | 227 | 12.9 | 17.7 | 0.00 | 0.05 | 0.03 | 29 | 1013.7 |
| 20260505005020 | 18 | 246 | 11.3 | 12.9 | 0.00 | 0.05 | 0.03 | 30 | 1013.7 |
| 20260505004518 | 18 | 207 | 9.7 | 12.9 | 0.00 | 0.05 | 0.03 | 31 | 1013.6 |
| 20260505004015 | 18 | 235 | 11.3 | 12.9 | 0.00 | 0.05 | 0.03 | 32 | 1013.6 |
| 20260505003537 | 17 | 127 | 9.7 | 12.9 | 0.00 | 0.05 | 0.03 | 33 | 1013.7 |
| 20260505003029 | 18 | 187 | 9.7 | 14.5 | 0.00 | 0.05 | 0.03 | 34 | 1013.7 |
| 20260505002527 | 18 | 209 | 11.3 | 16.1 | 0.00 | 0.05 | 0.03 | 34 | 1013.7 |
| 20260505002050 | 18 | 200 | 9.7 | 14.5 | 0.00 | 0.05 | 0.03 | 34 | 1013.7 |
| 20260505001522 | 18 | 210 | 11.3 | 16.1 | 0.00 | 0.05 | 0.03 | 33 | 1013.7 |
| 20260505001020 | 19 | 203 | 9.7 | 11.3 | 0.00 | 0.05 | 0.03 | 32 | 1013.7 |
| 20260505000518 | 20 | 256 | 8.0 | 14.5 | 0.00 | 0.05 | 0.03 | 32 | 1013.7 |
| 20260505000015 | 18 | 220 | 9.7 | 14.5 | 0.00 | 0.05 | 0.03 | 31 | 1013.5 |
| 20260504235530 | 19 | 240 | 11.3 | 19.3 | 0.00 | 0.05 | 0.03 | 32 | 1013.4 |
| 20260504235027 | 19 | 224 | 11.3 | 12.9 | 0.00 | 0.05 | 0.03 | 34 | 1013.4 |
| 20260504234525 | 18 | 220 | 12.9 | 14.5 | 0.00 | 0.05 | 0.03 | 35 | 1013.4 |
| 20260504234043 | 17 | 270 | 11.3 | 17.7 | 0.00 | 0.05 | 0.03 | 36 | 1013.4 |
| 20260504233520 | 17 | 218 | 9.7 | 11.3 | 0.00 | 0.05 | 0.03 | 36 | 1013.6 |
| 20260504233018 | 18 | 258 | 9.7 | 14.5 | 0.00 | 0.05 | 0.03 | 36 | 1013.6 |
| 20260504232515 | 18 | 273 | 11.3 | 14.5 | 0.00 | 0.05 | 0.03 | 36 | 1013.6 |
| 20260504232030 | 18 | 238 | 11.3 | 14.5 | 0.00 | 0.05 | 0.03 | 36 | 1013.8 |
| 20260504231516 | 18 | 280 | 9.7 | 14.5 | 0.00 | 0.05 | 0.03 | 37 | 1013.8 |
| 20260504231032 | 17 | 285 | 11.3 | 16.1 | 0.00 | 0.05 | 0.03 | 37 | 1013.7 |
| 20260504230530 | 17 | 221 | 9.7 | 14.5 | 0.00 | 0.05 | 0.03 | 37 | 1013.7 |
| 20260504230028 | 18 | 227 | 12.9 | 14.5 | 0.00 | 0.05 | 0.03 | 36 | 1013.6 |
| 20260504225526 | 18 | 265 | 8.0 | 11.3 | 0.00 | 0.05 | 0.03 | 35 | 1013.6 |
| 20260504225044 | 18 | 253 | 9.7 | 17.7 | 0.00 | 0.05 | 0.03 | 35 | 1013.6 |
| 20260504224542 | 18 | 210 | 9.7 | 12.9 | 0.00 | 0.05 | 0.03 | 35 | 1013.7 |
| 20260504224019 | 18 | 176 | 8.0 | 9.7 | 0.00 | 0.05 | 0.03 | 35 | 1013.7 |
| 20260504223516 | 18 | 203 | 11.3 | 14.5 | 0.00 | 0.05 | 0.03 | 34 | 1013.8 |
| 20260504223032 | 19 | 240 | 9.7 | 12.9 | 0.00 | 0.05 | 0.03 | 34 | 1013.8 |
| 20260504222530 | 19 | 204 | 9.7 | 12.9 | 0.00 | 0.05 | 0.03 | 33 | 1013.8 |
| 20260504222027 | 19 | 259 | 8.0 | 14.5 | 0.00 | 0.05 | 0.03 | 33 | 1013.8 |
| 20260504221524 | 20 | 231 | 11.3 | 14.5 | 0.00 | 0.05 | 0.03 | 32 | 1013.8 |
| 20260504221023 | 20 | 189 | 11.3 | 17.7 | 0.00 | 0.05 | 0.03 | 32 | 1014.0 |
| 20260504220521 | 20 | 153 | 8.0 | 11.3 | 0.00 | 0.05 | 0.03 | 33 | 1014.0 |
| 20260504220018 | 20 | 167 | 11.3 | 17.7 | 0.00 | 0.05 | 0.03 | 33 | 1014.0 |
| 20260504215516 | 20 | 231 | 8.0 | 14.5 | 0.00 | 0.05 | 0.03 | 33 | 1014.0 |
| 20260504215031 | 21 | 261 | 12.9 | 17.7 | 0.00 | 0.05 | 0.03 | 31 | 1014.0 |
| 20260504214528 | 21 | 213 | 9.7 | 14.5 | 0.00 | 0.05 | 0.03 | 32 | 1014.4 |
| 20260504214026 | 20 | 191 | 6.4 | 8.0 | 0.00 | 0.05 | 0.03 | 33 | 1014.4 |
| 20260504213524 | 20 | 233 | 12.9 | 19.3 | 0.00 | 0.05 | 0.03 | 33 | 1014.3 |
| 20260504213021 | 20 | 260 | 8.0 | 14.5 | 0.00 | 0.05 | 0.03 | 34 | 1014.3 |
| 20260504212519 | 20 | 228 | 8.0 | 11.3 | 0.00 | 0.05 | 0.03 | 34 | 1014.3 |
| 20260504212016 | 20 | 249 | 8.0 | 11.3 | 0.00 | 0.05 | 0.03 | 34 | 1014.4 |
| 20260504211520 | 20 | 217 | 8.0 | 11.3 | 0.00 | 0.05 | 0.03 | 35 | 1014.4 |
| 20260504211018 | 19 | 240 | 6.4 | 9.7 | 0.00 | 0.05 | 0.03 | 36 | 1014.5 |
| 20260504210516 | 19 | 141 | 12.9 | 16.1 | 0.00 | 0.05 | 0.03 | 36 | 1014.5 |
| 20260504210052 | 19 | 235 | 6.4 | 9.7 | 0.00 | 0.05 | 0.03 | 37 | 1014.4 |
| 20260504205530 | 19 | 215 | 11.3 | 14.5 | 0.00 | 0.05 | 0.03 | 37 | 1014.4 |
| 20260504205028 | 19 | 226 | 11.3 | 16.1 | 0.00 | 0.05 | 0.03 | 37 | 1014.4 |
| 20260504204525 | 19 | 229 | 11.3 | 19.3 | 0.00 | 0.05 | 0.03 | 37 | 1014.5 |
| 20260504204023 | 19 | 270 | 12.9 | 16.1 | 0.00 | 0.05 | 0.03 | 37 | 1014.5 |
| 20260504203521 | 19 | 198 | 11.3 | 12.9 | 0.00 | 0.05 | 0.03 | 38 | 1014.5 |
| 20260504203019 | 18 | 228 | 8.0 | 12.9 | 0.00 | 0.05 | 0.03 | 39 | 1014.5 |
| 20260504202516 | 18 | 205 | 8.0 | 11.3 | 0.00 | 0.05 | 0.03 | 39 | 1014.6 |
| 20260504202032 | 18 | 122 | 9.7 | 16.1 | 0.00 | 0.05 | 0.03 | 39 | 1014.6 |
| 20260504201530 | 18 | 185 | 8.0 | 9.7 | 0.00 | 0.05 | 0.03 | 39 | 1014.6 |
| 20260504201028 | 18 | 188 | 9.7 | 17.7 | 0.00 | 0.05 | 0.03 | 39 | 1014.4 |
| 20260504200526 | 19 | 247 | 8.0 | 12.9 | 0.00 | 0.05 | 0.03 | 40 | 1014.4 |
| 20260504200103 | 20 | 277 | 8.0 | 12.9 | 0.00 | 0.05 | 0.03 | 38 | 1014.6 |
| 20260504195521 | 20 | 216 | 6.4 | 9.7 | 0.00 | 0.05 | 0.03 | 38 | 1014.6 |
| 20260504195019 | 19 | 180 | 6.4 | 9.7 | 0.00 | 0.05 | 0.03 | 40 | 1014.6 |
| 20260504194517 | 18 | 237 | 6.4 | 8.0 | 0.00 | 0.05 | 0.03 | 40 | 1014.6 |
| 20260504194052 | 19 | 197 | 9.7 | 16.1 | 0.00 | 0.05 | 0.03 | 40 | 1014.6 |
| 20260504193529 | 18 | 197 | 6.4 | 9.7 | 0.00 | 0.05 | 0.03 | 39 | 1014.6 |
| 20260504193047 | 18 | 141 | 6.4 | 12.9 | 0.00 | 0.05 | 0.03 | 37 | 1014.6 |
| 20260504192524 | 20 | 145 | 9.7 | 14.5 | 0.00 | 0.05 | 0.03 | 36 | 1014.7 |
| 20260504192042 | 21 | 149 | 9.7 | 12.9 | 0.00 | 0.05 | 0.03 | 35 | 1014.9 |
| 20260504191520 | 21 | 220 | 8.0 | 9.7 | 0.00 | 0.05 | 0.03 | 32 | 1014.9 |
| 20260504191018 | 21 | 195 | 8.0 | 12.9 | 0.00 | 0.05 | 0.03 | 33 | 1015.0 |
| 20260504190536 | 20 | 147 | 8.0 | 12.9 | 0.00 | 0.05 | 0.03 | 36 | 1015.0 |
| 20260504190020 | 19 | 216 | 6.4 | 9.7 | 0.00 | 0.05 | 0.03 | 40 | 1015.1 |
| 20260504185518 | 20 | 194 | 9.7 | 12.9 | 0.00 | 0.05 | 0.03 | 39 | 1015.1 |
| 20260504185016 | 20 | 202 | 8.0 | 9.7 | 0.00 | 0.05 | 0.03 | 39 | 1015.2 |
| 20260504184532 | 20 | 211 | 8.0 | 11.3 | 0.00 | 0.05 | 0.03 | 39 | 1015.3 |
| 20260504184110 | 21 | 127 | 11.3 | 16.1 | 0.00 | 0.05 | 0.03 | 38 | 1015.3 |
| 20260504183527 | 21 | 215 | 11.3 | 16.1 | 0.00 | 0.05 | 0.03 | 39 | 1015.2 |
| 20260504183025 | 20 | 235 | 8.0 | 11.3 | 0.00 | 0.05 | 0.03 | 39 | 1015.2 |
| 20260504182523 | 21 | 257 | 8.0 | 9.7 | 0.00 | 0.05 | 0.03 | 39 | 1015.3 |
| 20260504182021 | 20 | 248 | 8.0 | 12.9 | 0.00 | 0.05 | 0.03 | 41 | 1015.3 |
| 20260504181538 | 20 | 217 | 9.7 | 11.3 | 0.00 | 0.05 | 0.03 | 42 | 1015.3 |
| 20260504181016 | 20 | 242 | 8.0 | 11.3 | 0.00 | 0.05 | 0.03 | 42 | 1015.7 |
| 20260504180532 | 20 | 226 | 8.0 | 9.7 | 0.00 | 0.05 | 0.03 | 41 | 1015.7 |
| 20260504180030 | 20 | 235 | 8.0 | 12.9 | 0.00 | 0.05 | 0.03 | 42 | 1015.6 |
| 20260504175528 | 20 | 186 | 9.7 | 16.1 | 0.00 | 0.05 | 0.03 | 40 | 1015.5 |
| 20260504175026 | 21 | 139 | 8.0 | 9.7 | 0.00 | 0.05 | 0.03 | 41 | 1015.5 |
| 20260504174524 | 20 | 162 | 8.0 | 9.7 | 0.00 | 0.05 | 0.03 | 42 | 1015.5 |
| 20260504174041 | 20 | 170 | 8.0 | 11.3 | 0.00 | 0.05 | 0.03 | 42 | 1015.5 |
| 20260504173559 | 20 | 142 | 9.7 | 11.3 | 0.00 | 0.05 | 0.03 | 41 | 1015.5 |
| 20260504173017 | 20 | 225 | 9.7 | 11.3 | 0.00 | 0.05 | 0.03 | 42 | 1015.5 |
| 20260504172515 | 20 | 203 | 9.7 | 16.1 | 0.00 | 0.05 | 0.03 | 42 | 1015.5 |
| 20260504172030 | 20 | 161 | 9.7 | 12.9 | 0.00 | 0.05 | 0.03 | 42 | 1015.5 |
| 20260504171528 | 20 | 209 | 8.0 | 11.3 | 0.00 | 0.05 | 0.03 | 43 | 1015.5 |
| 20260504171026 | 20 | 249 | 6.4 | 9.7 | 0.00 | 0.05 | 0.03 | 43 | 1015.7 |
| 20260504170524 | 20 | 201 | 11.3 | 16.1 | 0.00 | 0.05 | 0.03 | 44 | 1015.7 |
| 20260504151018 | 15 | 60 | 4.8 | 6.4 | 0.03 | 0.05 | 0.03 | 59 | 1016.1 |
| 20260504150556 | 15 | 83 | 4.8 | 6.4 | 0.03 | 0.05 | 0.03 | 61 | 1016.1 |
| 20260504141057 | 7 | 0.0 | 0.0 | 0.00 | 0.03 | 0.00 | 87 | 1016.3 | |
| 20260504140533 | 7 | 0.0 | 0.0 | 0.00 | 0.03 | 0.00 | 89 | 1016.3 | |
| 20260504130526 | 5 | 0.0 | 0.0 | 0.00 | 0.03 | 0.00 | 90 | 1015.8 | |
| 20260504110521 | 6 | 0.0 | 0.0 | 0.00 | 0.03 | 0.00 | 85 | 1015.8 |